DLH94Y EDDM-LIEA

Flight info

Callsign DLH94Y
Flight time N/A
Altitude 35000
Route TURBU6E/08R TURBU DCT LIZUM N503 VIC L12 ELB Q125 NEMIT DCT CORSI
Aircraft A320/M-SDE3FGHIRWY/LB1

Departure

Time 2026-05-01 11:53
Airport Munich Airport (EDDM)

Arrival

Time N/A
Airport Alghero-Fertilia Airport (LIEA)
Time Latitude Longitude Altitude Speed Heading
2026-05-01 11:18 48.35507 11.80007 1486 ft 0 kts 263°
2026-05-01 11:35 48.35508 11.80020 1485 ft 4 kts 263°
2026-05-01 11:36 48.35511 11.80060 1481 ft 4 kts 263°
2026-05-01 11:36 48.35518 11.80087 1471 ft 4 kts 193°
2026-05-01 11:36 48.35538 11.80088 1478 ft 4 kts 173°
2026-05-01 11:36 48.35548 11.80086 1473 ft 0 kts 173°
2026-05-01 11:39 48.35536 11.80088 1482 ft 7 kts 173°
2026-05-01 11:40 48.35491 11.80096 1480 ft 6 kts 173°
2026-05-01 11:40 48.35458 11.80102 1483 ft 4 kts 173°
2026-05-01 11:40 48.35416 11.80109 1484 ft 11 kts 172°
2026-05-01 11:40 48.35342 11.80130 1485 ft 11 kts 174°
2026-05-01 11:41 48.35272 11.80142 1484 ft 10 kts 173°
2026-05-01 11:41 48.35211 11.80153 1485 ft 8 kts 173°
2026-05-01 11:41 48.35163 11.80109 1475 ft 13 kts 251°
2026-05-01 11:41 48.35153 11.79985 1485 ft 12 kts 263°
2026-05-01 11:42 48.35139 11.79815 1481 ft 17 kts 263°
2026-05-01 11:42 48.35126 11.79648 1478 ft 15 kts 263°
2026-05-01 11:42 48.35087 11.79521 1472 ft 13 kts 202°
2026-05-01 11:42 48.35003 11.79533 1482 ft 12 kts 173°
2026-05-01 11:43 48.34924 11.79545 1485 ft 8 kts 174°
2026-05-01 11:43 48.34916 11.79547 1473 ft 0 kts 174°
2026-05-01 11:43 48.34912 11.79547 1474 ft 1 kts 174°
2026-05-01 11:44 48.34894 11.79550 1481 ft 0 kts 174°
2026-05-01 11:45 48.34851 11.79557 1473 ft 11 kts 174°
2026-05-01 11:45 48.34791 11.79520 1475 ft 9 kts 241°
2026-05-01 11:45 48.34779 11.79404 1479 ft 14 kts 264°
2026-05-01 11:45 48.34768 11.79265 1481 ft 13 kts 262°
2026-05-01 11:46 48.34756 11.79097 1485 ft 18 kts 263°
2026-05-01 11:46 48.34742 11.78918 1485 ft 16 kts 263°
2026-05-01 11:46 48.34729 11.78756 1485 ft 15 kts 263°
2026-05-01 11:46 48.34717 11.78605 1481 ft 18 kts 263°
2026-05-01 11:47 48.34700 11.78387 1477 ft 22 kts 263°
2026-05-01 11:47 48.34681 11.78145 1479 ft 25 kts 263°
2026-05-01 11:47 48.34661 11.77875 1485 ft 27 kts 265°
2026-05-01 11:47 48.34638 11.77586 1473 ft 25 kts 263°
2026-05-01 11:48 48.34619 11.77330 1485 ft 26 kts 263°
2026-05-01 11:48 48.34597 11.77047 1482 ft 29 kts 263°
2026-05-01 11:48 48.34572 11.76738 1485 ft 29 kts 263°
2026-05-01 11:48 48.34552 11.76464 1480 ft 27 kts 263°
2026-05-01 11:49 48.34529 11.76170 1485 ft 30 kts 263°
2026-05-01 11:49 48.34507 11.75889 1473 ft 19 kts 263°
2026-05-01 11:49 48.34493 11.75688 1480 ft 20 kts 264°
2026-05-01 11:49 48.34476 11.75474 1481 ft 21 kts 263°
2026-05-01 11:50 48.34459 11.75266 1485 ft 17 kts 261°
2026-05-01 11:50 48.34380 11.75223 1484 ft 12 kts 172°
2026-05-01 11:50 48.34360 11.75227 1477 ft 0 kts 173°
2026-05-01 11:51 48.34358 11.75227 1478 ft 3 kts 173°
2026-05-01 11:51 48.34314 11.75235 1478 ft 7 kts 173°
2026-05-01 11:52 48.34265 11.75244 1471 ft 9 kts 173°
2026-05-01 11:52 48.34174 11.75260 1485 ft 15 kts 173°
2026-05-01 11:52 48.34091 11.75339 1483 ft 15 kts 105°
2026-05-01 11:52 48.34100 11.75508 1485 ft 19 kts 83°
2026-05-01 11:53 48.34133 11.75943 1485 ft 73 kts 83°
2026-05-01 11:53 48.34214 11.76992 1485 ft 129 kts 84°
2026-05-01 11:53 48.34335 11.78541 1623 ft 159 kts 83°
2026-05-01 11:53 48.34466 11.80118 2448 ft 153 kts 83°
2026-05-01 11:54 48.34575 11.81742 3105 ft 161 kts 84°
2026-05-01 11:54 48.34693 11.83545 3437 ft 186 kts 84°
2026-05-01 11:54 48.34842 11.85590 3828 ft 206 kts 84°
2026-05-01 11:54 48.35015 11.87836 4374 ft 223 kts 85°
2026-05-01 11:55 48.35198 11.90187 5205 ft 229 kts 85°
2026-05-01 11:55 48.35387 11.92595 5992 ft 235 kts 85°
2026-05-01 11:55 48.35282 11.95036 6805 ft 238 kts 110°
2026-05-01 11:55 48.34319 11.97053 7578 ft 244 kts 138°
2026-05-01 11:56 48.32980 11.98647 8447 ft 247 kts 139°
2026-05-01 11:56 48.31613 12.00233 9259 ft 250 kts 139°
2026-05-01 11:56 48.30153 12.01723 10023 ft 259 kts 151°
2026-05-01 11:56 48.28405 12.02589 10643 ft 275 kts 168°
2026-05-01 11:57 48.26416 12.02655 11032 ft 295 kts 179°
2026-05-01 11:57 48.25046 12.02555 11426 ft 300 kts 179°
2026-05-01 11:57 48.22219 12.02365 12374 ft 307 kts 179°
2026-05-01 11:57 48.20068 12.02229 13075 ft 312 kts 179°
2026-05-01 11:58 48.18622 12.02142 13535 ft 315 kts 179°
2026-05-01 11:58 48.16416 12.02015 14216 ft 320 kts 179°
2026-05-01 11:58 48.11923 12.01762 15535 ft 326 kts 179°
2026-05-01 11:59 48.10754 12.01694 15840 ft 329 kts 179°
2026-05-01 11:59 48.09754 12.01637 16101 ft 331 kts 179°
2026-05-01 11:59 48.09040 12.01596 16304 ft 332 kts 179°
2026-05-01 12:00 48.07817 12.01495 16640 ft 335 kts 182°
2026-05-01 12:00 48.03121 11.99835 17194 ft 368 kts 193°
2026-05-01 12:01 48.00594 11.98766 17326 ft 386 kts 193°
2026-05-01 12:01 47.97945 11.97641 17460 ft 403 kts 193°
2026-05-01 12:01 47.95189 11.96473 17604 ft 418 kts 193°
2026-05-01 12:01 47.92359 11.95281 17979 ft 426 kts 193°
2026-05-01 12:02 47.89452 11.94391 18463 ft 428 kts 187°
2026-05-01 12:02 47.86507 11.93670 18935 ft 431 kts 187°
2026-05-01 12:02 47.83539 11.92947 19378 ft 434 kts 187°
2026-05-01 12:02 47.80547 11.92220 19816 ft 437 kts 187°
2026-05-01 12:03 47.77527 11.91484 20241 ft 441 kts 187°
2026-05-01 12:03 47.74493 11.90742 20665 ft 444 kts 187°
2026-05-01 12:03 47.71429 11.89994 21099 ft 447 kts 187°
2026-05-01 12:03 47.68354 11.89247 21512 ft 450 kts 187°
2026-05-01 12:04 47.65256 11.88497 21850 ft 453 kts 187°
2026-05-01 12:04 47.62134 11.87741 22251 ft 456 kts 187°
2026-05-01 12:04 47.58995 11.86983 22656 ft 459 kts 187°
2026-05-01 12:04 47.55826 11.86222 23026 ft 462 kts 187°
2026-05-01 12:05 47.52638 11.85455 23422 ft 465 kts 187°
2026-05-01 12:05 47.46240 11.83916 24126 ft 472 kts 187°
2026-05-01 12:05 47.42995 11.83134 24452 ft 474 kts 187°
2026-05-01 12:06 47.39729 11.82349 24767 ft 476 kts 187°
2026-05-01 12:06 47.36450 11.81565 25097 ft 478 kts 187°
2026-05-01 12:06 47.33160 11.80780 25408 ft 481 kts 187°
2026-05-01 12:06 47.29849 11.79989 25712 ft 483 kts 187°
2026-05-01 12:07 47.26529 11.79193 25997 ft 485 kts 187°
2026-05-01 12:07 47.23194 11.78390 26283 ft 487 kts 187°
2026-05-01 12:07 47.19848 11.77585 26579 ft 488 kts 187°
2026-05-01 12:07 47.16482 11.76781 26845 ft 491 kts 187°
2026-05-01 12:08 47.13098 11.75976 27145 ft 493 kts 187°
2026-05-01 12:08 47.09688 11.75491 27423 ft 492 kts 180°
2026-05-01 12:08 47.06264 11.75324 27806 ft 491 kts 180°
2026-05-01 12:08 47.02848 11.75152 28212 ft 491 kts 180°
2026-05-01 12:09 46.99439 11.74973 28636 ft 489 kts 180°
2026-05-01 12:09 46.96041 11.74786 29019 ft 489 kts 180°
2026-05-01 12:09 46.92640 11.74598 29381 ft 489 kts 180°
2026-05-01 12:09 46.89284 11.74413 29767 ft 489 kts 180°
2026-05-01 12:10 46.85883 11.74227 30127 ft 488 kts 179°
2026-05-01 12:10 46.79110 11.73851 30837 ft 487 kts 180°
2026-05-01 12:10 46.75731 11.73664 31156 ft 486 kts 180°
2026-05-01 12:11 46.68951 11.73296 31748 ft 487 kts 179°
2026-05-01 12:11 46.65561 11.73110 32037 ft 487 kts 179°
2026-05-01 12:11 46.62182 11.72927 32361 ft 486 kts 179°
2026-05-01 12:12 46.58803 11.72743 32694 ft 486 kts 179°
2026-05-01 12:12 46.55427 11.72560 33010 ft 486 kts 179°
2026-05-01 12:12 46.52052 11.72373 33334 ft 485 kts 179°
2026-05-01 12:12 46.48674 11.72184 33643 ft 485 kts 179°
2026-05-01 12:13 46.45305 11.71995 33970 ft 485 kts 179°
2026-05-01 12:13 46.41937 11.71805 34285 ft 484 kts 179°
2026-05-01 12:13 46.38578 11.71616 34600 ft 483 kts 179°
2026-05-01 12:13 46.35221 11.71432 34887 ft 482 kts 179°
2026-05-01 12:14 46.31873 11.71255 35141 ft 482 kts 179°
2026-05-01 12:14 46.28514 11.71078 35290 ft 483 kts 179°
2026-05-01 12:14 46.21757 11.70726 35320 ft 487 kts 179°